Showing default

EXPLORER 40 (INJUN-5), 3338

Orbit data source: Space-Track

EXPLORER 40 (INJUN-5), 3338 is a payload satellite owned by NASA LaRC (US) in LEO that was launched on Thu, 08 Aug 1968 UTC via an SCOUT B launch vehicle from the Air Force Western Test Range (AFWTR). Payload-class satellites include a variety of spacecraft equipped with specific instruments for various scientific and technological missions. These include communications satellites like Starlink; space stations such as the ISS; scientific satellites like the Hubble; Earth observation satellites from companies like Planet Labs, Umbra, and HawkEye 360; GPS; miniature CubeSats for education and research; and military/defense satellites.

Loading next visibility...
Identifier
3338, 1968-066B
Orbit
LEO
Country
Flag of USUS
Related business
Manufacturer
Iowa
Mission
Spacecraft
Bus & Motor
INJUN E, Unknown motor
Mass
70 kg wet, 70 kg dry
Launch date (UTC)
1968-08-08 (57 years ago)
Launch vehicle
SCOUT B
Launch site
Air Force Western Test Range (AFWTR)
Object type
Payload
Rocket body
Debris
Shape & HBR
Unknown
Radar Cross Section
Large (>1 m²)

Expand to show TLE details & history
Last TLE update: 1 day ago

TLE from 1 day ago
0 EXPLORER 40 (INJUN-5)
1 03338U 68066B   25305.39025256  .00000342  00000-0  34879-3 0  9993
2 03338  80.6582 261.1095 1130861  47.0024 322.0382 12.23483736550457
Epoch: 2025-11-01T09:21Z
TLE epoch observation values (Epoch: 2025-11-01T09:21:57.821Z)
Latitude
-0.00004°
Longitude
79.69755°
Altitude
914.745 km
Speed
7.697 km/s
True Right ascension
17h 24m 26s
True Declination
0° 00' 00"
Sunlit
Object was in daylight at epoch
Visualization orbit readout
Latitude
Unknown
Longitude
Unknown
Altitude
Unknown
Speed
Unknown
Apparent Right ascension
Unknown
Apparent Declination
Unknown
Sunlit
N/A
Visualization observer readout
Local Sidereal Time
05:11:04
Azimuth
Unknown
Elevation
Unknown
Doppler factor
Unknown
Orbital elements
Apogee altitude
2,474.178 km
Perigee altitude
675.443 km
Semi-major axis
7,952.947 km
Eccentricity
0.11309
Inclination
80.6582°
RAAN
261.1095°
Arg. of periapsis
47.0024°
True anomaly
313.10951°
Mean anomaly
322.0382°
Eccentric anomaly
317.67546°
Mean motion
3.06021 °/min
Orbital period
117.64 mins
BSTAR
0.00034879
Loading maneuver chart data...
Computing Atmospheric mass density...
Loading historical data...
Loading historical data...
Loading historical data...
Loading historical data...
Loading historical data...
Loading historical data...
Loading historical data...

Documentation

Showing up to 5 results
|